カタログに戻る

FREGAT DEB

運用中UNKNOWN
NORAD 45833·DEBRIS·🇷🇺 Russia

打ち上げ Jul 18, 2011 から Baikonur Cosmodrome

Loading…

次のパス (今後24時間)

TLE

最新Source: Space-Track

元期: Sep 14, 2026, 10:20 UTC

1 45833U 11037BT  26257.43101031  .00001228  00000-0  37024-2 0  9991
2 45833  51.6005  37.7924 2008378 271.3230  65.9793 10.24273171234624

AllMySatでFREGAT DEBをリアルタイム追跡

Download on the App Store